Regional Weather Roundup
Issued by NWS Sioux Falls, SD

Home | Current Version | Previous Version | Text Only | Print | Product List | Glossary On
Versions: 1 2 3 4 5 6 7 8 9 10 11 12 13 14 15 16 17 18 19 20 21 22 23 24 25 26 27 28 29 30 31 32 33 34 35 36 37 38 39 40 41 42 43 44 45 46 47 48 49 50
000
ASUS43 KFSD 310110
RWRFSD

WEATHER ROUNDUP FOR SE SOUTH DAKOTA/SW MINNESOTA/NW IOWA
NATIONAL WEATHER SERVICE SIOUX FALLS SD
800 PM CDT THU OCT 30 2014

NOTE: "FAIR" INDICATES FEW OR NO CLOUDS BELOW 12,000 FEET WITH NO
SIGNIFICANT WEATHER AND OR OBSTRUCTIONS TO VISIBILITY.


SDZ038>040-050-052>070-310200-
SOUTHEAST SOUTH DAKOTA

CITY           SKY/WX    TMP DP  RH WIND       PRES   REMARKS
CHAMBERLAIN    PTCLDY    37  30  75 N10       30.45R
HURON          CLOUDY    37  28  70 N17G26    30.45R
MADISON        CLOUDY    36  32  87 N23G30    30.38R
MITCHELL       CLOUDY    39  30  70 N20       30.43R
SIOUX FALLS    CLOUDY    38  30  73 N24G36    30.36R
WINNER         FAIR      38  30  73 N10       30.43R
YANKTON        CLOUDY    43  34  70 N21G29    30.38R
$$

MNZ071-072-080-081-089-090-097-098-310200-
SOUTHWEST MINNESOTA

CITY           SKY/WX    TMP DP  RH WIND       PRES   REMARKS
FAIRMONT       CLOUDY    45  30  57 NW22G36   30.25R
JACKSON        CLOUDY    41  30  65 N18G39    30.28R
LUVERNE        CLOUDY    37  32  81 N20G31    30.35R
MARSHALL       CLOUDY    36  23  60 N28G39    30.36R
MONTEVIDEO     CLOUDY    36  28  75 N18G29    30.38R
PIPESTONE      CLOUDY    36  28  75 N16G23    30.34R
REDWOOD FALLS  CLOUDY    39  31  72 NW17G29   30.32R
TRACY          CLOUDY    36  29  76 N28G37    30.35R
WINDOM         CLOUDY    39  30  70 NW23G32   30.30R
WORTHINGTON    CLOUDY    37  28  70 N25G33    30.32R
$$

IAZ001>003-012>014-020>022-031-032-NEZ013-014-SDZ071-310200-
NORTHWEST IOWA

CITY           SKY/WX    TMP DP  RH WIND       PRES   REMARKS
CHEROKEE       CLOUDY    44  39  81 N18G28    30.28R
DENISON        CLOUDY    50  41  71 N20G31    30.20R
ESTHERVILLE    CLOUDY    42  34  73 N24G36    30.25R
LE MARS        CLOUDY    45  36  70 N26G32    30.32R
ORANGE CITY    CLOUDY    43  34  70 N20G29    30.32R
SHELDON        CLOUDY    39  32  75 N21G31    30.31R
SIOUX CITY     CLOUDY    47  38  71 N24G32    30.30R
SPENCER        CLOUDY    42  34  73 N29G38    30.27R
STORM LAKE     CLOUDY    45  37  76 N20G28    30.26R
$$

ABBREVIATIONS USED IN REMARKS
   TC - TEMPERATURE IN CELSIUS
  WCI - WIND CHILL INDEX
   HX - HEAT INDEX
  VSB - VISIBILITY




USA.gov is the U.S. government's official web portal to all federal, state and local government web resources and services.